Weather reports worldwide

Advertisment
Bournemouth Airport, United Kingdom (3862): temperature & dewpoint: 16.01.2020 00:00:00 - 22.01.2020 00:00:00 (GMT)Bournemouth Airport, United Kingdom (3862): temperature -20cm & temperature -100cm: 16.01.2020 00:00:00 - 22.01.2020 00:00:00 (GMT)Bournemouth Airport, United Kingdom (3862): wind speed & gusts: 16.01.2020 00:00:00 - 22.01.2020 00:00:00 (GMT)Bournemouth Airport, United Kingdom (3862): wind direction: 16.01.2020 00:00:00 - 22.01.2020 00:00:00 (GMT)Bournemouth Airport, United Kingdom (3862): reduced air pressure: 16.01.2020 00:00:00 - 22.01.2020 00:00:00 (GMT)Bournemouth Airport, United Kingdom (3862): visibility: 16.01.2020 00:00:00 - 22.01.2020 00:00:00 (GMT)Bournemouth Airport, United Kingdom (3862): sunshine duration: 16.01.2020 00:00:00 - 22.01.2020 00:00:00 (GMT)Bournemouth Airport, United Kingdom (3862): precipitation: 16.01.2020 00:00:00 - 22.01.2020 00:00:00 (GMT)
Date & Time tt [°C] td [°C] tt -20cm [°C] tt -100cm [°C] ff [km/h] ff [kn] fx [km/h] fx [kn] dd ppp [hPa] vv [km] sd [min] rr [mm]
22.01.2020 00:00:00 -3,3 -3,7 - - 5 3 - - WNW 1040,5 - - 0,0
21.01.2020 23:00:00 -2,0 -2,4 - - 4 2 - - NNW 1040,3 1,1 0 0,0
21.01.2020 22:00:00 -1,9 -2,3 - - 2 1 - - NNW 1040,2 5 0 0,0
21.01.2020 21:00:00 -0,9 -1,4 - - 5 3 - - NNW 1040,5 3,2 0 0,0
21.01.2020 20:00:00 -0,6 -1,1 - - 4 2 - - WNW 1040,4 5 0 0,0
21.01.2020 19:00:00 0,5 -0,4 - - 4 2 - - - 1040,6 8 0 0,0
21.01.2020 18:00:00 1,2 -0,3 - - 4 2 - - N 1040,6 10 0 0,0
21.01.2020 17:00:00 4,3 1,7 - - 4 2 - - N 1040,5 10 18 0,0
21.01.2020 16:00:00 6,6 2,7 - - 8 4 - - - 1040,5 10 60 0,0
21.01.2020 15:00:00 7,5 3,4 - - 8 4 - - - 1040,8 10 60 0,0
21.01.2020 14:00:00 7,5 3,7 - - 5 3 - - ENE 1041,1 26 60 0,0
21.01.2020 13:00:00 6,8 3,9 - - 5 3 - - - 1042,1 10 60 0,0
21.01.2020 12:00:00 4,5 3,7 - - 8 4 - - NNW 1042,3 9 60 0,0
21.01.2020 11:00:00 2,4 2,1 - - 4 2 - - - 1043,3 6 60 0,2
21.01.2020 10:00:00 -0,6 -0,8 - - 4 2 - - WNW 1043,2 3,5 36 0,0
21.01.2020 09:00:00 -3,0 -3,3 5,0 7,7 5 3 - - - 1043,0 3,0 0 0,0
21.01.2020 08:00:00 -4,8 -5,1 - - 4 2 - - WNW 1043,0 2,0 0 0,0
21.01.2020 07:00:00 -4,4 -4,6 - - 4 2 - - NNW 1042,9 0,2 0 0,0
21.01.2020 06:00:00 -3,1 -3,3 - - 4 2 - - NNW 1043,0 0,9 0 0,0
21.01.2020 05:00:00 -3,0 -3,3 - - 5 3 - - NW 1042,8 - 0 0,0
21.01.2020 04:00:00 -3,0 -3,3 - - 2 1 - - N 1042,8 0,1 0 0,0
21.01.2020 03:00:00 -3,5 -3,9 - - 4 2 - - NNW 1043,5 - 0 0,0
21.01.2020 02:00:00 -2,9 -3,3 - - 5 3 - - N 1044,1 2,6 0 0,0
21.01.2020 01:00:00 -2,9 -3,3 - - 4 2 - - NNW 1044,4 1,7 0 0,0
21.01.2020 00:00:00 -3,1 -3,5 - - 2 1 - - ENE 1045,4 1,0 - 0,0
20.01.2020 23:00:00 -2,3 -2,7 - - 2 1 - - NW 1045,1 4,7 0 0,0
20.01.2020 22:00:00 -2,3 -2,9 - - 8 4 - - N 1045,6 6 0 0,0
20.01.2020 21:00:00 -1,8 -2,5 - - 5 3 - - NNW 1045,7 6 0 0,0
20.01.2020 20:00:00 -1,1 -2,1 - - 2 1 - - NW 1046,2 10 0 0,0
20.01.2020 19:00:00 0,4 -1,5 - - 0 0 - - N 1046,4 19 0 0,0
20.01.2020 18:00:00 3,1 0,1 - - 2 1 - - WSW 1046,5 19 0 0,0
20.01.2020 17:00:00 4,7 0,4 - - 5 3 - - NW 1046,6 10 24 0,0
20.01.2020 16:00:00 6,7 1,4 - - 9 5 - - W 1047,0 30 60 0,0
20.01.2020 15:00:00 8,9 1,5 - - 4 2 - - WSW 1047,2 28 54 0,0
20.01.2020 14:00:00 6,6 0,9 - - 4 2 - - - 1047,8 10 36 0,0
20.01.2020 13:00:00 7,9 0,7 - - 2 1 - - - 1048,4 10 54 0,0
20.01.2020 12:00:00 5,8 2,8 - - 4 2 - - W 1048,6 13 54 0,0
20.01.2020 11:00:00 1,8 1,4 - - 2 1 - - W 1049,5 8 0 0,0
20.01.2020 10:00:00 0,5 0,3 - - 0 0 - - N 1049,6 9 0 0,0
20.01.2020 09:00:00 -0,6 -0,8 5,5 8,2 4 2 - - W 1049,6 5 0 0,0
20.01.2020 08:00:00 -1,6 -1,9 - - 2 1 - - NNW 1049,3 8 0 0,0
20.01.2020 07:00:00 -2,0 -2,4 - - 4 2 - - W 1049,2 6 0 0,0
20.01.2020 06:00:00 -1,6 -2,1 - - 2 1 - - - 1049,3 7 0 0,0
20.01.2020 05:00:00 -1,9 -2,3 - - 4 2 - - NW 1048,9 7 0 0,0
20.01.2020 04:00:00 -1,7 -2,0 - - 5 3 - - NW 1049,1 8 0 0,0
20.01.2020 03:00:00 -2,1 -2,5 - - 5 3 - - N 1049,2 7 0 0,0
20.01.2020 02:00:00 -1,9 -2,3 - - 2 1 - - NNW 1049,6 7 0 0,0
20.01.2020 01:00:00 -2,4 -2,8 - - 4 2 - - NW 1049,6 7 0 0,0
20.01.2020 00:00:00 -2,3 -2,7 - - 8 4 - - NNW 1049,8 9 - 0,0
19.01.2020 23:00:00 -2,8 -3,3 - - 4 2 - - NW 1049,7 3,9 0 0,0
19.01.2020 22:00:00 -2,0 -2,7 - - 5 3 - - NNW 1049,5 8 0 0,0
19.01.2020 21:00:00 -0,9 -1,6 - - 4 2 - - NNW 1049,2 10 0 0,0
19.01.2020 20:00:00 -1,6 -2,4 - - 9 5 - - NNW 1049,2 10 0 0,0
19.01.2020 19:00:00 0,5 -0,4 - - 8 4 - - N 1048,8 10 0 0,0
19.01.2020 18:00:00 1,8 -0,7 - - 9 5 - - N 1048,1 30 0 0,0
19.01.2020 17:00:00 3,0 -0,3 - - 11 6 - - N 1047,5 10 18 0,0
19.01.2020 16:00:00 5,9 0,9 - - 9 5 - - N 1047,2 10 60 0,0
19.01.2020 15:00:00 7,3 1,4 - - 11 6 - - N 1046,5 35 60 0,0
19.01.2020 14:00:00 7,5 1,5 - - 9 5 - - N 1046,1 10 60 0,0
19.01.2020 13:00:00 6,7 2,0 - - 13 7 - - NNW 1046,1 35 60 0,0
19.01.2020 12:00:00 5,6 1,9 - - 11 6 - - - 1046,1 10 60 0,0
19.01.2020 11:00:00 3,3 2,9 - - 8 4 - - N 1046,2 10 54 0,0
19.01.2020 10:00:00 -0,1 -0,3 - - 5 3 - - NNW 1045,3 10 48 0,0
19.01.2020 09:00:00 -3,0 -3,1 7,0 8,7 4 2 - - NNW 1044,5 10 0 0,0
19.01.2020 08:00:00 -3,9 -4,1 - - 4 2 - - NNW 1043,4 10 0 0,0
19.01.2020 07:00:00 -4,0 -4,4 - - 2 1 - - NE 1042,3 10 0 0,0
19.01.2020 06:00:00 -3,0 -3,3 - - 5 3 - - NW 1041,8 0,6 0 0,0
19.01.2020 05:00:00 -1,7 -1,9 - - 4 2 - - NNW 1040,9 8 0 0,0
19.01.2020 04:00:00 -2,1 -2,3 - - 5 3 - - NW 1040,4 0,5 0 0,0
19.01.2020 03:00:00 -1,4 -1,6 - - 2 1 - - NW 1039,7 11 0 0,0
19.01.2020 02:00:00 -2,5 -2,8 - - 8 4 - - NW 1038,9 8 0 0,0
19.01.2020 01:00:00 -1,4 -1,7 - - 4 2 - - W 1038,2 9 0 0,0
19.01.2020 00:00:00 -2,5 -2,9 - - 0 0 - - N 1037,2 2,1 - 0,0
18.01.2020 23:00:00 -1,6 -2,1 - - 5 3 - - WNW 1036,3 2,6 0 0,0
18.01.2020 22:00:00 0,1 -0,6 - - 4 2 - - NNW 1035,6 7 0 0,0
18.01.2020 21:00:00 0,7 0,0 - - 4 2 - - NNW 1034,9 10 0 0,0
18.01.2020 20:00:00 0,8 -0,1 - - 4 2 - - NNW 1034,3 10 0 0,0
18.01.2020 19:00:00 0,7 -0,6 - - 5 3 - - N 1033,3 10 0 0,0
18.01.2020 18:00:00 2,5 0,2 - - 8 4 - - N 1032,2 10 0 0,0
18.01.2020 17:00:00 3,6 0,6 - - 4 2 - - - 1031,5 10 0 0,0
18.01.2020 16:00:00 5,4 1,5 - - 8 4 - - N 1030,6 30 12 0,0
18.01.2020 15:00:00 6,1 2,1 - - 9 5 - - NNE 1030,0 10 24 0,0
18.01.2020 14:00:00 7,1 1,7 - - 9 5 - - N 1029,6 30 60 0,0
18.01.2020 13:00:00 7,1 3,2 - - 8 4 - - NNE 1029,1 10 60 0,0
18.01.2020 12:00:00 5,9 4,1 - - 8 4 - - N 1028,9 10 60 0,0
18.01.2020 11:00:00 4,7 4,5 - - 2 1 - - WNW 1028,5 11 54 0,2
18.01.2020 10:00:00 0,8 0,6 - - 2 1 - - N 1028,1 3,7 48 0,0
18.01.2020 09:00:00 -2,1 -2,3 7,7 8,7 2 1 - - ENE 1027,4 0,4 0 0,0
18.01.2020 08:00:00 -2,3 -2,6 - - 4 2 - - N 1027,0 0,8 0 0,0
18.01.2020 07:00:00 -2,1 -2,4 - - 4 2 - - N 1026,4 0,7 0 0,0
18.01.2020 06:00:00 -2,6 -3,1 - - 4 2 - - N 1025,9 0,6 0 0,0
18.01.2020 05:00:00 -0,9 -1,4 - - 0 0 - - N 1025,0 0,5 0 0,0
18.01.2020 04:00:00 0,4 -0,2 - - 2 1 - - WSW 1024,4 27 0 0,0
18.01.2020 03:00:00 0,0 -0,8 - - 9 5 - - WNW 1024,1 30 0 0,0
18.01.2020 02:00:00 1,2 0,4 - - 15 8 - - W 1023,4 35 0 0,0
18.01.2020 01:00:00 1,4 0,5 - - 8 4 - - W 1022,6 35 0 0,0
18.01.2020 00:00:00 1,2 0,4 - - 8 4 - - W 1022,0 35 - 0,0
17.01.2020 23:00:00 1,5 0,2 - - 11 6 - - W 1021,2 40 0 0,0
17.01.2020 22:00:00 2,3 0,3 - - 9 5 - - W 1020,4 45 0 0,0
17.01.2020 21:00:00 3,5 1,8 - - 18 10 - - W 1019,5 10 0 0,0
17.01.2020 20:00:00 2,1 0,1 - - 11 6 - - W 1018,9 30 0 0,0
17.01.2020 19:00:00 3,5 1,3 - - 9 5 - - W 1018,5 10 0 0,0
17.01.2020 18:00:00 4,3 2,0 - - 11 6 - - WSW 1018,1 35 0 0,0
17.01.2020 17:00:00 4,1 2,4 - - 5 3 - - WSW 1017,6 10 0 0,6
17.01.2020 16:00:00 6,5 2,7 - - 15 8 - - W 1016,9 10 42 0,0
17.01.2020 15:00:00 7,5 2,3 - - 24 13 - - W 1016,3 10 30 0,2
17.01.2020 14:00:00 8,2 3,4 - - 24 13 46 25 WNW 1015,8 70 48 0,0
17.01.2020 13:00:00 7,9 3,8 - - 24 13 - - W 1015,0 10 30 0,0
17.01.2020 12:00:00 8,2 3,7 - - 31 17 48 26 W 1014,2 10 48 0,0
17.01.2020 11:00:00 7,4 3,8 - - 34 18 52 28 W 1013,7 10 18 0,0
17.01.2020 10:00:00 7,7 4,1 - - 34 18 50 27 W 1011,9 10 42 0,0
17.01.2020 09:00:00 7,8 5,7 8,7 8,7 22 12 - - WSW 1010,1 10 0 0,0
17.01.2020 08:00:00 8,4 6,3 - - 21 11 - - WSW 1009,2 6 0 0,6
17.01.2020 07:00:00 9,3 6,6 - - 21 11 - - SW 1008,3 10 0 0,0
17.01.2020 06:00:00 9,3 7,5 - - 18 10 - - SSW 1008,1 10 0 0,0
17.01.2020 05:00:00 8,7 7,5 - - 15 8 55 30 SSW 1008,0 22 0 1,2
17.01.2020 04:00:00 10,0 8,7 - - 22 12 - - SSW 1007,7 11 0 4,2
17.01.2020 03:00:00 9,1 7,5 - - 21 11 52 28 SW 1008,5 4,2 0 0,8
17.01.2020 02:00:00 10,8 9,5 - - 18 10 - - SSW 1008,7 12 0 0,2
17.01.2020 01:00:00 10,7 9,6 - - 18 10 - - SSW 1008,9 12 0 0,0
17.01.2020 00:00:00 10,9 9,8 - - 16 9 - - SSW 1009,1 10 - 0,0
16.01.2020 23:00:00 10,9 9,8 - - 15 8 - - SSW 1009,4 10 0 0,0
16.01.2020 22:00:00 11,1 9,9 - - 18 10 - - SSW 1009,6 8 0 0,0
16.01.2020 21:00:00 11,4 9,9 - - 21 11 - - SSW 1009,5 9 0 0,0
16.01.2020 20:00:00 11,2 10,4 - - 22 12 55 30 SSW 1008,8 8 0 2,4
16.01.2020 19:00:00 11,3 10,2 - - 34 18 54 29 S 1008,5 4,5 0 2,2
16.01.2020 18:00:00 11,8 9,7 - - 34 18 61 33 S 1008,4 4,3 0 0,4
16.01.2020 17:00:00 12,5 8,9 - - 39 21 61 33 S 1008,1 19 0 0,0
16.01.2020 16:00:00 12,0 8,9 - - 29 16 54 29 S 1008,2 14 0 0,2
16.01.2020 15:00:00 11,5 8,3 - - 34 18 52 28 S 1009,2 10 0 0,6
16.01.2020 14:00:00 10,9 8,4 - - 26 14 - - S 1010,0 10 0 0,8
16.01.2020 13:00:00 10,9 7,8 - - 28 15 - - S 1010,9 10 0 0,0
16.01.2020 12:00:00 10,4 8,0 - - 26 14 46 25 SSE 1011,9 12 0 0,2
16.01.2020 11:00:00 10,4 7,6 - - 28 15 46 25 S 1013,5 22 0 0,0
16.01.2020 10:00:00 9,8 7,6 - - 28 15 - - S 1014,0 10 12 0,0
16.01.2020 09:00:00 9,4 7,5 8,5 8,7 22 12 - - SSE 1015,0 21 0 0,0
16.01.2020 08:00:00 9,1 7,1 - - 21 11 - - S 1015,4 22 0 0,0
16.01.2020 07:00:00 9,1 6,6 - - 22 12 - - SSE 1016,1 10 0 0,0
16.01.2020 06:00:00 9,3 6,7 - - 24 13 - - S 1016,7 20 0 0,0
16.01.2020 05:00:00 9,1 6,4 - - 22 12 - - S 1017,5 19 0 0,0
16.01.2020 04:00:00 9,4 6,3 - - 26 14 - - S 1018,0 23 0 0,0
16.01.2020 03:00:00 9,3 6,6 - - 21 11 - - SSW 1018,5 20 0 0,0
16.01.2020 02:00:00 9,4 6,7 - - 18 10 - - SSW 1018,5 19 0 0,0
16.01.2020 01:00:00 9,1 6,4 - - 21 11 - - SSW 1018,6 19 0 0,0
16.01.2020 00:00:00 9,5 6,7 - - 21 11 - - SSW 1018,1 19 - 0,0

tt = temperature
td = dewpoint
tt -20cm = temperature -20cm
tt -100cm = temperature -100cm
ff = wind speed
fx = gusts
dd = wind direction
ppp = reduced air pressure
vv = visibility
sd = sunshine duration
rr = precipitation

Next stations